| time (UTC) | temp C | wind direction | speed KPH | gust KPH | rain 1hr cm | rain 24hr cm | rain mn cm | humidity % | barometer mb |
| 20260507172043 | 8 | 337 | 0.0 | 0.0 | 0.00 | 0.00 | 0.00 | 76 | 854.0 |
| 20260507171543 | 8 | 337 | 0.0 | 0.0 | 0.00 | 0.00 | 0.00 | 75 | 853.7 |
| 20260507171119 | 8 | 337 | 0.0 | 0.0 | 0.00 | 0.00 | 0.00 | 73 | 853.9 |
| 20260507171043 | 8 | 337 | 0.0 | 0.0 | 0.00 | 0.00 | 0.00 | 73 | 853.9 |
| 20260507170543 | 9 | 337 | 0.0 | 0.0 | 0.00 | 0.00 | 0.00 | 70 | 853.9 |
| 20260507170043 | 10 | 337 | 0.0 | 0.0 | 0.00 | 0.00 | 0.00 | 69 | 854.0 |
| 20260507165543 | 10 | 337 | 0.0 | 0.0 | 0.00 | 0.00 | 0.00 | 69 | 853.9 |
| 20260507165043 | 10 | 337 | 0.0 | 0.0 | 0.00 | 0.00 | 0.00 | 68 | 853.9 |
| 20260507164543 | 11 | 337 | 0.0 | 0.0 | 0.00 | 0.00 | 0.00 | 70 | 853.8 |
| 20260507164043 | 11 | 337 | 0.0 | 0.0 | 0.00 | 0.00 | 0.00 | 69 | 853.9 |
| 20260507163543 | 12 | 337 | 0.0 | 0.0 | 0.00 | 0.00 | 0.00 | 69 | 853.9 |
| 20260507163145 | 12 | 337 | 0.0 | 0.0 | 0.00 | 0.00 | 0.00 | 70 | 854.1 |
| 20260507163043 | 12 | 337 | 0.0 | 0.0 | 0.00 | 0.00 | 0.00 | 70 | 854.1 |
| 20260507162543 | 11 | 337 | 0.0 | 0.0 | 0.00 | 0.00 | 0.00 | 71 | 854.2 |
| 20260507162043 | 11 | 337 | 0.0 | 0.0 | 0.00 | 0.00 | 0.00 | 71 | 854.4 |
| 20260507161543 | 10 | 337 | 0.0 | 0.0 | 0.00 | 0.00 | 0.00 | 74 | 854.6 |
| 20260507161043 | 10 | 337 | 0.0 | 0.0 | 0.00 | 0.00 | 0.00 | 73 | 855.3 |
| 20260507160543 | 9 | 337 | 0.0 | 0.0 | 0.00 | 0.00 | 0.00 | 72 | 855.8 |
| 20260507160043 | 8 | 337 | 0.0 | 0.0 | 0.00 | 0.00 | 0.00 | 73 | 856.0 |
| 20260507155543 | 9 | 337 | 0.0 | 0.0 | 0.00 | 0.00 | 0.00 | 73 | 856.3 |
| 20260507155043 | 8 | 337 | 0.0 | 0.0 | 0.00 | 0.00 | 0.00 | 77 | 856.0 |
| 20260507154544 | 7 | 337 | 0.0 | 0.0 | 0.00 | 0.00 | 0.00 | 75 | 856.3 |
| 20260507154044 | 7 | 337 | 0.0 | 0.0 | 0.00 | 0.00 | 0.00 | 76 | 856.0 |
| 20260507153811 | 7 | 337 | 0.0 | 0.0 | 0.00 | 0.00 | 0.00 | 76 | 856.1 |
| 20260507153544 | 7 | 337 | 0.0 | 0.0 | 0.00 | 0.00 | 0.00 | 76 | 856.1 |
| 20260507153131 | 7 | 337 | 0.0 | 0.0 | 0.00 | 0.00 | 0.00 | 76 | 856.1 |
| 20260507153043 | 7 | 337 | 0.0 | 0.0 | 0.00 | 0.00 | 0.00 | 76 | 856.1 |
| 20260507152543 | 7 | 337 | 0.0 | 0.0 | 0.00 | 0.00 | 0.00 | 77 | 855.9 |
| 20260507152044 | 7 | 337 | 0.0 | 0.0 | 0.00 | 0.00 | 0.00 | 76 | 856.2 |
| 20260507151544 | 7 | 337 | 0.0 | 0.0 | 0.00 | 0.00 | 0.00 | 76 | 856.2 |
| 20260507151044 | 7 | 337 | 0.0 | 0.0 | 0.00 | 0.00 | 0.00 | 76 | 855.9 |
| 20260507150544 | 8 | 337 | 0.0 | 0.0 | 0.00 | 0.00 | 0.00 | 75 | 855.9 |
| 20260507150044 | 8 | 337 | 0.0 | 0.0 | 0.00 | 0.00 | 0.00 | 77 | 855.9 |
| 20260507145544 | 8 | 337 | 0.0 | 0.0 | 0.00 | 0.00 | 0.00 | 77 | 855.4 |
| 20260507145044 | 8 | 337 | 0.0 | 0.0 | 0.00 | 0.00 | 0.00 | 76 | 855.4 |
| 20260507144544 | 7 | 337 | 0.0 | 0.0 | 0.00 | 0.00 | 0.00 | 78 | 855.2 |
| 20260507144044 | 7 | 337 | 0.0 | 0.0 | 0.00 | 0.00 | 0.00 | 80 | 855.4 |
| 20260507143737 | 7 | 337 | 0.0 | 0.0 | 0.00 | 0.00 | 0.00 | 78 | 855.8 |
| 20260507143544 | 7 | 337 | 0.0 | 0.0 | 0.00 | 0.00 | 0.00 | 78 | 855.8 |
| 20260507143044 | 7 | 337 | 0.0 | 0.0 | 0.00 | 0.00 | 0.00 | 77 | 855.6 |
| 20260507142544 | 8 | 337 | 0.0 | 0.0 | 0.00 | 0.00 | 0.00 | 77 | 855.4 |
| 20260507142044 | 8 | 337 | 0.0 | 0.0 | 0.00 | 0.00 | 0.00 | 76 | 855.3 |
| 20260507141544 | 8 | 337 | 0.0 | 0.0 | 0.00 | 0.00 | 0.00 | 77 | 855.0 |
| 20260507141044 | 8 | 337 | 0.0 | 0.0 | 0.00 | 0.00 | 0.00 | 76 | 854.7 |
| 20260507140544 | 8 | 337 | 0.0 | 0.0 | 0.00 | 0.00 | 0.00 | 75 | 854.2 |
| 20260507140044 | 7 | 337 | 0.0 | 0.0 | 0.00 | 0.00 | 0.00 | 80 | 853.8 |
| 20260507135544 | 7 | 337 | 0.0 | 0.0 | 0.00 | 0.00 | 0.00 | 82 | 853.9 |
| 20260507135044 | 6 | 337 | 0.0 | 0.0 | 0.00 | 0.00 | 0.00 | 80 | 853.6 |
| 20260507134544 | 6 | 315 | 0.0 | 8.0 | 0.00 | 0.00 | 0.00 | 81 | 853.5 |
| 20260507134044 | 6 | 315 | 0.0 | 1.6 | 0.00 | 0.00 | 0.00 | 82 | 853.3 |
| 20260507133544 | 5 | 67 | 0.0 | 6.4 | 0.00 | 0.00 | 0.00 | 83 | 853.0 |
| 20260507133044 | 5 | 315 | 3.2 | 11.3 | 0.00 | 0.00 | 0.00 | 82 | 853.3 |
| 20260507132628 | 5 | 315 | 1.6 | 16.1 | 0.00 | 0.00 | 0.00 | 83 | 853.1 |
| 20260507132544 | 5 | 315 | 1.6 | 16.1 | 0.00 | 0.00 | 0.00 | 83 | 853.1 |
| 20260507132044 | 5 | 337 | 9.7 | 16.1 | 0.00 | 0.00 | 0.00 | 84 | 852.8 |
| 20260507131544 | 5 | 337 | 6.4 | 19.3 | 0.00 | 0.00 | 0.00 | 84 | 852.8 |
| 20260507131044 | 5 | 0 | 0.0 | 148.1 | 0.00 | 0.00 | 0.00 | 86 | 852.5 |
| 20260507130544 | 3 | 337 | 11.3 | 62.8 | 0.00 | 0.00 | 0.00 | 87 | 851.9 |
| 20260507130044 | 3 | 0 | 0.0 | 12.9 | 0.00 | 0.00 | 0.00 | 87 | 852.3 |
| 20260507125544 | 2 | 0 | 9.7 | 9.7 | 0.00 | 0.00 | 0.00 | 88 | 852.5 |
| 20260507125044 | 1 | 90 | 0.0 | 0.0 | 0.00 | 0.00 | 0.00 | 88 | 852.9 |
| 20260507124544 | 1 | 315 | 0.0 | 3.2 | 0.00 | 0.00 | 0.00 | 88 | 852.8 |
| 20260507124044 | 1 | 315 | 0.0 | 11.3 | 0.00 | 0.00 | 0.00 | 88 | 852.9 |
| 20260507123544 | 1 | 67 | 0.0 | 11.3 | 0.00 | 0.00 | 0.00 | 88 | 852.9 |
| 20260507123153 | 1 | 337 | 9.7 | 12.9 | 0.00 | 0.00 | 0.00 | 88 | 852.9 |
| 20260507123044 | 1 | 337 | 9.7 | 12.9 | 0.00 | 0.00 | 0.00 | 88 | 852.9 |
| 20260507122544 | 1 | 22 | 8.0 | 11.3 | 0.00 | 0.00 | 0.00 | 88 | 852.9 |
| 20260507122044 | 1 | 292 | 8.0 | 9.7 | 0.00 | 0.00 | 0.00 | 85 | 852.9 |
| 20260507121544 | 1 | 90 | 9.7 | 20.9 | 0.00 | 0.00 | 0.00 | 86 | 853.2 |
| 20260507121044 | 2 | 0 | 0.0 | 173.8 | 0.00 | 0.00 | 0.00 | 88 | 853.1 |
| 20260507120544 | 2 | 135 | 19.3 | 29.0 | 0.00 | 0.00 | 0.00 | 91 | 853.7 |
| 20260507120044 | 2 | 135 | 6.4 | 14.5 | 0.00 | 0.00 | 0.00 | 90 | 854.7 |
| 20260507115544 | 2 | 157 | 0.0 | 16.1 | 0.00 | 0.00 | 0.00 | 89 | 854.4 |
| 20260507115044 | 2 | 157 | 9.7 | 17.7 | 0.00 | 0.00 | 0.00 | 89 | 854.1 |
| 20260507114544 | 2 | 157 | 16.1 | 16.1 | 0.00 | 0.00 | 0.00 | 89 | 854.7 |
| 20260507114044 | 3 | 157 | 4.8 | 17.7 | 0.00 | 0.00 | 0.00 | 88 | 856.0 |
| 20260507113544 | 3 | 157 | 4.8 | 6.4 | 0.00 | 0.00 | 0.00 | 87 | 854.9 |
| 20260507113044 | 3 | 135 | 6.4 | 6.4 | 0.00 | 0.00 | 0.00 | 85 | 855.0 |
| 20260507112544 | 4 | 112 | 0.0 | 1.6 | 0.00 | 0.00 | 0.00 | 84 | 854.9 |
| 20260507112044 | 5 | 112 | 0.0 | 0.0 | 0.00 | 0.00 | 0.00 | 82 | 855.1 |
| 20260507111544 | 5 | 112 | 0.0 | 0.0 | 0.00 | 0.00 | 0.00 | 80 | 855.2 |
| 20260507111044 | 6 | 112 | 0.0 | 1.6 | 0.00 | 0.00 | 0.00 | 78 | 855.3 |
| 20260507110544 | 7 | 135 | 0.0 | 3.2 | 0.00 | 0.00 | 0.00 | 77 | 855.1 |
| 20260507110044 | 8 | 135 | 0.0 | 0.0 | 0.00 | 0.00 | 0.00 | 74 | 855.1 |
| 20260507105544 | 8 | 90 | 0.0 | 0.0 | 0.00 | 0.00 | 0.00 | 72 | 855.1 |
| 20260507105044 | 9 | 135 | 0.0 | 1.6 | 0.00 | 0.00 | 0.00 | 72 | 854.8 |
| 20260507104544 | 10 | 135 | 0.0 | 3.2 | 0.00 | 0.00 | 0.00 | 72 | 855.0 |
| 20260507104044 | 9 | 90 | 0.0 | 1.6 | 0.00 | 0.00 | 0.00 | 76 | 854.7 |
| 20260507103544 | 8 | 22 | 0.0 | 3.2 | 0.00 | 0.00 | 0.00 | 77 | 855.0 |
| 20260507103044 | 8 | 22 | 0.0 | 6.4 | 0.00 | 0.00 | 0.00 | 77 | 855.0 |
| 20260507102544 | 8 | 337 | 0.0 | 1.6 | 0.00 | 0.00 | 0.00 | 78 | 855.0 |
| 20260507102044 | 8 | 22 | 0.0 | 0.0 | 0.00 | 0.00 | 0.00 | 79 | 855.0 |
| 20260507101544 | 8 | 45 | 0.0 | 4.8 | 0.00 | 0.00 | 0.00 | 79 | 855.2 |
| 20260507101044 | 8 | 22 | 0.0 | 0.0 | 0.00 | 0.00 | 0.00 | 79 | 855.3 |
| 20260507100544 | 7 | 22 | 0.0 | 3.2 | 0.00 | 0.00 | 0.00 | 79 | 855.3 |
| 20260507100044 | 7 | 22 | 0.0 | 3.2 | 0.00 | 0.00 | 0.00 | 78 | 855.4 |
| 20260507095544 | 7 | 67 | 0.0 | 4.8 | 0.00 | 0.00 | 0.00 | 78 | 855.3 |
| 20260507095124 | 7 | 90 | 0.0 | 0.0 | 0.00 | 0.00 | 0.00 | 79 | 855.1 |
| 20260507095044 | 7 | 90 | 0.0 | 0.0 | 0.00 | 0.00 | 0.00 | 79 | 855.1 |
| 20260507094544 | 7 | 90 | 0.0 | 0.0 | 0.00 | 0.00 | 0.00 | 78 | 855.1 |
| 20260507094044 | 7 | 22 | 0.0 | 1.6 | 0.00 | 0.00 | 0.00 | 78 | 855.1 |
| 20260507093544 | 7 | 45 | 0.0 | 0.0 | 0.00 | 0.00 | 0.00 | 78 | 855.1 |
| 20260507093044 | 8 | 45 | 0.0 | 0.0 | 0.00 | 0.00 | 0.00 | 77 | 855.1 |
| 20260507092544 | 8 | 112 | 0.0 | 0.0 | 0.00 | 0.00 | 0.00 | 78 | 855.0 |
| 20260507092044 | 8 | 90 | 0.0 | 0.0 | 0.00 | 0.00 | 0.00 | 80 | 854.8 |
| 20260507091544 | 8 | 22 | 0.0 | 4.8 | 0.00 | 0.00 | 0.00 | 80 | 854.8 |
| 20260507091044 | 8 | 22 | 6.4 | 6.4 | 0.00 | 0.00 | 0.00 | 80 | 854.8 |
| 20260507090544 | 7 | 90 | 0.0 | 0.0 | 0.00 | 0.00 | 0.00 | 81 | 854.8 |
| 20260507090044 | 7 | 67 | 0.0 | 0.0 | 0.00 | 0.00 | 0.00 | 81 | 854.7 |
| 20260507085544 | 7 | 135 | 0.0 | 0.0 | 0.00 | 0.00 | 0.00 | 80 | 854.7 |
| 20260507085044 | 6 | 0 | 0.0 | 0.0 | 0.00 | 0.00 | 0.00 | 81 | 854.9 |
| 20260507084544 | 6 | 0 | 0.0 | 0.0 | 0.00 | 0.00 | 0.00 | 82 | 856.2 |
| 20260507084044 | 6 | 0 | 0.0 | 0.0 | 0.00 | 0.00 | 0.00 | 82 | 855.1 |
| 20260507083544 | 6 | 0 | 0.0 | 0.0 | 0.00 | 0.00 | 0.00 | 81 | 856.6 |
| 20260507083044 | 6 | 0 | 0.0 | 0.0 | 0.00 | 0.00 | 0.00 | 81 | 856.1 |
| 20260507082544 | 6 | 247 | 0.0 | 0.0 | 0.00 | 0.00 | 0.00 | 82 | 855.4 |
| 20260507082044 | 6 | 0 | 0.0 | 0.0 | 0.00 | 0.00 | 0.00 | 83 | 855.8 |
| 20260507081544 | 6 | 292 | 140.0 | 140.0 | 0.00 | 0.00 | 0.00 | 83 | 855.0 |
| 20260507081044 | 5 | 0 | 0.0 | 0.0 | 0.00 | 0.00 | 0.00 | 83 | 855.1 |
| 20260507080544 | 5 | 135 | 0.0 | 0.0 | 0.00 | 0.00 | 0.00 | 82 | 854.9 |
| 20260507080047 | 5 | 135 | 0.0 | 0.0 | 0.00 | 0.00 | 0.00 | 83 | 854.1 |
| 20260507075545 | 5 | 292 | 0.0 | 0.0 | 0.00 | 0.00 | 0.00 | 84 | 855.4 |
| 20260507075045 | 5 | 0 | 0.0 | 19.3 | 0.00 | 0.00 | 0.00 | 84 | 853.8 |
| 20260507074545 | 5 | 0 | 0.0 | 0.0 | 0.00 | 0.00 | 0.00 | 85 | 855.3 |
| 20260507074045 | 4 | 270 | 0.0 | 0.0 | 0.00 | 0.00 | 0.00 | 84 | 853.7 |
| 20260507073545 | 3 | 0 | 0.0 | 0.0 | 0.00 | 0.00 | 0.00 | 83 | 856.5 |
| 20260507073046 | 4 | 0 | 0.0 | 0.0 | 0.00 | 0.00 | 0.00 | 83 | 853.8 |
| 20260507072546 | 5 | 0 | 0.0 | 0.0 | 0.00 | 0.00 | 0.00 | 82 | 855.9 |
| 20260507072046 | 5 | 0 | 0.0 | 0.0 | 0.00 | 0.00 | 0.00 | 83 | 854.7 |
| 20260507071546 | 5 | 0 | 0.0 | 67.6 | 0.00 | 0.00 | 0.00 | 84 | 854.5 |
| 20260507071045 | 5 | 90 | 0.0 | 0.0 | 0.00 | 0.00 | 0.00 | 84 | 854.3 |
| 20260507070547 | 5 | 0 | 0.0 | 138.4 | 0.00 | 0.00 | 0.00 | 83 | 852.8 |
| 20260507070046 | 4 | 0 | 0.0 | 0.0 | 0.00 | 0.00 | 0.00 | 82 | 854.9 |
| 20260507065654 | 4 | 0 | 0.0 | 0.0 | 0.00 | 0.00 | 0.00 | 81 | 853.6 |
| 20260507065546 | 4 | 0 | 0.0 | 0.0 | 0.00 | 0.00 | 0.00 | 81 | 853.6 |
| 20260507065046 | 5 | 0 | 0.0 | 0.0 | 0.00 | 0.00 | 0.00 | 81 | 854.7 |
| 20260507064546 | 6 | 0 | 0.0 | 0.0 | 0.00 | 0.00 | 0.00 | 80 | 853.3 |
| 20260507064046 | 6 | 0 | 0.0 | 0.0 | 0.00 | 0.00 | 0.00 | 79 | 854.9 |
| 20260507063546 | 7 | 0 | 0.0 | 0.0 | 0.00 | 0.00 | 0.00 | 78 | 852.8 |
| 20260507063046 | 7 | 0 | 0.0 | 0.0 | 0.00 | 0.00 | 0.00 | 80 | 854.2 |
| 20260507062547 | 5 | 0 | 0.0 | 0.0 | 0.00 | 0.00 | 0.00 | 83 | 853.7 |
| 20260507062046 | 5 | 0 | 0.0 | 0.0 | 0.00 | 0.00 | 0.00 | 83 | 851.7 |
| 20260507061546 | 5 | 0 | 0.0 | 0.0 | 0.00 | 0.00 | 0.00 | 83 | 854.6 |
| 20260507061047 | 5 | 0 | 0.0 | 0.0 | 0.00 | 0.00 | 0.00 | 83 | 850.8 |
| 20260507060546 | 5 | 0 | 0.0 | 0.0 | 0.00 | 0.00 | 0.00 | 83 | 852.9 |
| 20260507060046 | 4 | 0 | 0.0 | 0.0 | 0.00 | 0.00 | 0.00 | 83 | 853.9 |
| 20260507055546 | 4 | 0 | 0.0 | 0.0 | 0.00 | 0.00 | 0.00 | 83 | 853.0 |
| 20260507055046 | 3 | 0 | 0.0 | 0.0 | 0.00 | 0.00 | 0.00 | 83 | 854.9 |
| 20260507054546 | 3 | 0 | 0.0 | 0.0 | 0.00 | 0.00 | 0.00 | 82 | 852.3 |
| 20260507054047 | 3 | 0 | 0.0 | 0.0 | 0.00 | 0.00 | 0.00 | 83 | 853.4 |
| 20260507053546 | 2 | 0 | 0.0 | 0.0 | 0.00 | 0.00 | 0.00 | 84 | 853.9 |
| 20260507053046 | 2 | 0 | 0.0 | 0.0 | 0.00 | 0.00 | 0.00 | 84 | 851.5 |
| 20260507052546 | 1 | 0 | 0.0 | 0.0 | 0.00 | 0.00 | 0.00 | 83 | 853.4 |
| 20260507052046 | 1 | 0 | 0.0 | 0.0 | 0.00 | 0.00 | 0.00 | 83 | 853.5 |
| 20260507051546 | 1 | 0 | 0.0 | 0.0 | 0.00 | 0.00 | 0.00 | 83 | 855.5 |
| 20260507051046 | 1 | 0 | 0.0 | 0.0 | 0.00 | 0.00 | 0.00 | 83 | 851.6 |
| 20260507050546 | 2 | 0 | 0.0 | 0.0 | 0.00 | 0.00 | 0.00 | 85 | 854.3 |
| 20260507050046 | 2 | 0 | 0.0 | 0.0 | 0.00 | 0.00 | 0.00 | 85 | 853.1 |
| 20260507045546 | 2 | 0 | 0.0 | 0.0 | 0.00 | 0.00 | 0.00 | 86 | 854.8 |
| 20260507045046 | 2 | 0 | 0.0 | 0.0 | 0.00 | 0.00 | 0.00 | 86 | 851.3 |
| 20260507044546 | 2 | 0 | 0.0 | 0.0 | 0.00 | 0.00 | 0.00 | 86 | 853.8 |
| 20260507044046 | 2 | 0 | 0.0 | 0.0 | 0.00 | 0.00 | 0.00 | 86 | 852.9 |
| 20260507043546 | 1 | 0 | 0.0 | 0.0 | 0.00 | 0.00 | 0.00 | 86 | 852.5 |
| 20260507043046 | 1 | 0 | 0.0 | 0.0 | 0.00 | 0.00 | 0.00 | 86 | 855.2 |
| 20260507042546 | 1 | 0 | 0.0 | 0.0 | 0.00 | 0.00 | 0.00 | 87 | 853.8 |
| 20260507042046 | 0 | 157 | 115.9 | 115.9 | 0.00 | 0.00 | 0.00 | 88 | 855.4 |
| 20260507041546 | 0 | 315 | 0.0 | 0.0 | 0.00 | 0.00 | 0.00 | 88 | 854.2 |
| 20260507041046 | 0 | 315 | 0.0 | 0.0 | 0.00 | 0.00 | 0.00 | 88 | 855.1 |
| 20260507040547 | 0 | 315 | 0.0 | 0.0 | 0.00 | 0.00 | 0.00 | 88 | 855.6 |
| 20260507040046 | 0 | 315 | 0.0 | 0.0 | 0.00 | 0.00 | 0.00 | 89 | 853.5 |
| 20260507035546 | 0 | 315 | 0.0 | 0.0 | 0.00 | 0.00 | 0.00 | 89 | 856.1 |
| 20260507035050 | 0 | 315 | 0.0 | 0.0 | 0.00 | 0.00 | 0.00 | 89 | 852.7 |
| 20260507034546 | 0 | 315 | 0.0 | 0.0 | 0.00 | 0.00 | 0.00 | 89 | 855.1 |
| 20260507034046 | 0 | 315 | 0.0 | 0.0 | 0.00 | 0.00 | 0.00 | 89 | 854.4 |
| 20260507033546 | 0 | 315 | 0.0 | 0.0 | 0.00 | 0.00 | 0.00 | 89 | 853.6 |
| 20260507033046 | 0 | 315 | 0.0 | 0.0 | 0.00 | 0.00 | 0.00 | 89 | 852.5 |
| 20260507032546 | 0 | 315 | 0.0 | 0.0 | 0.00 | 0.00 | 0.00 | 89 | 852.5 |
| 20260507032046 | 0 | 315 | 0.0 | 0.0 | 0.00 | 0.00 | 0.00 | 89 | 852.6 |
| 20260507031546 | 0 | 315 | 0.0 | 0.0 | 0.00 | 0.00 | 0.00 | 89 | 852.4 |
| 20260507031046 | 0 | 315 | 0.0 | 0.0 | 0.00 | 0.00 | 0.00 | 89 | 852.6 |
| 20260507030546 | 0 | 315 | 0.0 | 0.0 | 0.00 | 0.00 | 0.00 | 89 | 852.4 |
| 20260507030046 | 0 | 315 | 0.0 | 0.0 | 0.00 | 0.00 | 0.00 | 89 | 852.4 |
| 20260507025546 | 0 | 315 | 0.0 | 0.0 | 0.00 | 0.00 | 0.00 | 89 | 852.4 |
| 20260507025046 | 0 | 315 | 0.0 | 0.0 | 0.00 | 0.00 | 0.00 | 90 | 852.3 |
| 20260507024546 | 0 | 315 | 0.0 | 0.0 | 0.00 | 0.00 | 0.00 | 90 | 852.1 |
| 20260507024046 | 0 | 315 | 0.0 | 3.2 | 0.00 | 0.00 | 0.00 | 90 | 852.0 |
| 20260507023649 | 0 | 315 | 0.0 | 0.0 | 0.00 | 0.00 | 0.00 | 91 | 852.1 |
| 20260507023546 | 0 | 315 | 0.0 | 0.0 | 0.00 | 0.00 | 0.00 | 91 | 852.1 |
| 20260507023046 | 0 | 315 | 0.0 | 3.2 | 0.00 | 0.00 | 0.00 | 91 | 852.1 |
| 20260507022546 | 0 | 0 | 0.0 | 0.0 | 0.00 | 0.00 | 0.00 | 91 | 851.8 |
| 20260507022046 | 0 | 292 | 0.0 | 6.4 | 0.00 | 0.00 | 0.00 | 91 | 851.8 |
| 20260507021546 | 0 | 292 | 1.6 | 6.4 | 0.00 | 0.00 | 0.00 | 91 | 851.6 |
| 20260507021046 | 0 | 292 | 0.0 | 1.6 | 0.00 | 0.00 | 0.00 | 91 | 851.8 |
| 20260507020547 | 0 | 292 | 1.6 | 3.2 | 0.00 | 0.00 | 0.00 | 91 | 851.5 |
| 20260507020046 | 0 | 292 | 3.2 | 6.4 | 0.00 | 0.00 | 0.00 | 91 | 851.1 |
| 20260507015546 | 0 | 292 | 4.8 | 6.4 | 0.00 | 0.00 | 0.00 | 92 | 850.8 |
| 20260507015046 | 0 | 292 | 3.2 | 6.4 | 0.00 | 0.00 | 0.00 | 92 | 850.2 |
| 20260507014546 | 0 | 292 | 1.6 | 14.5 | 0.00 | 0.00 | 0.00 | 92 | 850.1 |
| 20260507014046 | 0 | 292 | 14.5 | 14.5 | 0.00 | 0.00 | 0.00 | 92 | 849.4 |
| 20260507013546 | 0 | 292 | 11.3 | 12.9 | 0.00 | 0.00 | 0.00 | 91 | 849.3 |
| 20260507013046 | 0 | 315 | 3.2 | 6.4 | 0.00 | 0.00 | 0.00 | 91 | 849.9 |
| 20260507012547 | 0 | 315 | 4.8 | 11.3 | 0.00 | 0.00 | 0.00 | 91 | 849.6 |
| 20260507012046 | 0 | 337 | 8.0 | 12.9 | 0.00 | 0.00 | 0.00 | 92 | 849.5 |
| 20260507011546 | 0 | 315 | 9.7 | 9.7 | 0.00 | 0.00 | 0.00 | 92 | 849.1 |
| 20260507011046 | 0 | 315 | 9.7 | 16.1 | 0.00 | 0.00 | 0.00 | 92 | 848.5 |
| 20260507010546 | 0 | 0 | 0.0 | 11.3 | 0.00 | 0.00 | 0.00 | 93 | 848.4 |
| 20260507010046 | 0 | 315 | 9.7 | 9.7 | 0.00 | 0.00 | 0.00 | 93 | 848.0 |
| 20260507005546 | 0 | 315 | 9.7 | 11.3 | 0.00 | 0.00 | 0.00 | 93 | 848.1 |
| 20260507005046 | 0 | 315 | 9.7 | 11.3 | 0.00 | 0.00 | 0.00 | 93 | 847.8 |
| 20260507004546 | 0 | 315 | 9.7 | 9.7 | 0.00 | 0.00 | 0.00 | 93 | 847.8 |
| 20260507004046 | 0 | 315 | 9.7 | 11.3 | 0.00 | 0.00 | 0.00 | 93 | 847.6 |
| 20260507003546 | 0 | 315 | 9.7 | 11.3 | 0.00 | 0.00 | 0.00 | 93 | 847.5 |
| 20260507003046 | 1 | 315 | 9.7 | 14.5 | 0.00 | 0.00 | 0.00 | 93 | 847.5 |
| 20260507002546 | 1 | 315 | 9.7 | 16.1 | 0.00 | 0.00 | 0.00 | 93 | 847.4 |
| 20260507002046 | 1 | 292 | 12.9 | 16.1 | 0.00 | 0.00 | 0.00 | 93 | 847.4 |
| 20260507001546 | 1 | 292 | 14.5 | 16.1 | 0.00 | 0.00 | 0.00 | 93 | 847.7 |
| 20260507001046 | 1 | 315 | 11.3 | 16.1 | 0.00 | 0.00 | 0.00 | 93 | 847.8 |
| 20260507000547 | 1 | 315 | 11.3 | 17.7 | 0.00 | 0.00 | 0.00 | 93 | 847.7 |
| 20260507000046 | 0 | 292 | 17.7 | 17.7 | 0.00 | 0.00 | 0.00 | 93 | 847.8 |
| 20260506235547 | 0 | 292 | 12.9 | 16.1 | 0.00 | 0.00 | 0.00 | 93 | 847.9 |
| 20260506235046 | 0 | 315 | 9.7 | 12.9 | 0.00 | 0.00 | 0.00 | 93 | 848.0 |
| 20260506234547 | 0 | 315 | 9.7 | 12.9 | 0.00 | 0.00 | 0.00 | 93 | 848.1 |
| 20260506234046 | 1 | 315 | 9.7 | 14.5 | 0.00 | 0.00 | 0.00 | 93 | 848.0 |
| 20260506234044 | 1 | 315 | 11.3 | 12.9 | 0.00 | 0.00 | 0.00 | 93 | 848.0 |
| 20260506233546 | 1 | 315 | 12.9 | 16.1 | 0.00 | 0.00 | 0.00 | 93 | 848.0 |
| 20260506233047 | 1 | 315 | 11.3 | 12.9 | 0.00 | 0.00 | 0.00 | 93 | 848.0 |
| 20260506232547 | 1 | 315 | 9.7 | 11.3 | 0.00 | 0.00 | 0.00 | 93 | 848.0 |
| 20260506232047 | 1 | 315 | 11.3 | 12.9 | 0.00 | 0.00 | 0.00 | 93 | 848.0 |
| 20260506231547 | 1 | 315 | 9.7 | 12.9 | 0.00 | 0.00 | 0.00 | 93 | 848.1 |
| 20260506231048 | 1 | 315 | 11.3 | 11.3 | 0.00 | 0.00 | 0.00 | 93 | 848.1 |
| 20260506230547 | 1 | 315 | 11.3 | 11.3 | 0.00 | 0.00 | 0.00 | 93 | 848.1 |
| 20260506230047 | 1 | 315 | 4.8 | 12.9 | 0.00 | 0.00 | 0.00 | 93 | 848.1 |
| 20260506225547 | 1 | 315 | 3.2 | 9.7 | 0.00 | 0.00 | 0.00 | 93 | 848.2 |
| 20260506225047 | 1 | 337 | 6.4 | 8.0 | 0.00 | 0.00 | 0.00 | 93 | 848.2 |
| 20260506224547 | 1 | 315 | 9.7 | 9.7 | 0.00 | 0.00 | 0.00 | 93 | 848.3 |
| 20260506224047 | 1 | 315 | 6.4 | 9.7 | 0.00 | 0.00 | 0.00 | 93 | 848.5 |
| 20260506223547 | 1 | 315 | 9.7 | 11.3 | 0.00 | 0.00 | 0.00 | 92 | 848.5 |
| 20260506223047 | 1 | 315 | 8.0 | 9.7 | 0.00 | 0.00 | 0.00 | 92 | 848.5 |
| 20260506222546 | 1 | 315 | 6.4 | 11.3 | 0.00 | 0.00 | 0.00 | 92 | 848.4 |
| 20260506222047 | 1 | 315 | 8.0 | 90.1 | 0.00 | 0.00 | 0.00 | 92 | 848.7 |
| 20260506221547 | 1 | 315 | 0.0 | 160.9 | 0.00 | 0.00 | 0.00 | 92 | 848.8 |
| 20260506221047 | 1 | 315 | 0.0 | 82.1 | 0.00 | 0.00 | 0.00 | 92 | 849.0 |
| 20260506220547 | 1 | 315 | 0.0 | 46.7 | 0.00 | 0.00 | 0.00 | 92 | 849.0 |
| 20260506220047 | 1 | 0 | 0.0 | 4.8 | 0.00 | 0.00 | 0.00 | 92 | 849.1 |
| 20260506215630 | 1 | 315 | 4.8 | 91.7 | 0.00 | 0.00 | 0.00 | 92 | 849.0 |
| 20260506215547 | 1 | 315 | 4.8 | 91.7 | 0.00 | 0.00 | 0.00 | 92 | 849.0 |
| 20260506215214 | 1 | 0 | 91.7 | 91.7 | 0.00 | 0.00 | 0.00 | 92 | 848.9 |
| 20260506215047 | 1 | 0 | 91.7 | 91.7 | 0.00 | 0.00 | 0.00 | 92 | 848.9 |
| 20260506214547 | 1 | 315 | 1.6 | 70.8 | 0.00 | 0.00 | 0.00 | 92 | 848.8 |
| 20260506214047 | 1 | 270 | 0.0 | 0.0 | 0.00 | 0.00 | 0.00 | 92 | 848.9 |
| 20260506213547 | 1 | 0 | 0.0 | 14.5 | 0.00 | 0.00 | 0.00 | 92 | 848.8 |
| 20260506213047 | 1 | 315 | 12.9 | 24.1 | 0.00 | 0.00 | 0.00 | 92 | 848.9 |
| 20260506212548 | 1 | 337 | 0.0 | 0.0 | 0.00 | 0.00 | 0.00 | 92 | 848.8 |
| 20260506212047 | 1 | 45 | 3.2 | 160.9 | 0.00 | 0.00 | 0.00 | 92 | 848.8 |
| 20260506211548 | 1 | 45 | 0.0 | 177.0 | 0.00 | 0.00 | 0.00 | 92 | 848.9 |
| 20260506211047 | 1 | 112 | 0.0 | 16.1 | 0.00 | 0.00 | 0.00 | 92 | 849.0 |
| 20260506210547 | 1 | 337 | 16.1 | 20.9 | 0.00 | 0.00 | 0.00 | 92 | 848.7 |
| 20260506210047 | 1 | 315 | 12.9 | 14.5 | 0.00 | 0.00 | 0.00 | 92 | 848.6 |
| 20260506205547 | 1 | 292 | 0.0 | 8.0 | 0.00 | 0.00 | 0.00 | 92 | 848.5 |
| 20260506205047 | 1 | 315 | 6.4 | 16.1 | 0.00 | 0.00 | 0.00 | 92 | 848.5 |
| 20260506204547 | 1 | 315 | 6.4 | 8.0 | 0.00 | 0.00 | 0.00 | 92 | 848.6 |
| 20260506204047 | 1 | 315 | 6.4 | 16.1 | 0.00 | 0.00 | 0.00 | 92 | 848.5 |
| 20260506203547 | 1 | 315 | 8.0 | 20.9 | 0.00 | 0.00 | 0.00 | 92 | 848.5 |
| 20260506203047 | 1 | 315 | 9.7 | 19.3 | 0.00 | 0.00 | 0.00 | 92 | 848.4 |
| 20260506202547 | 1 | 292 | 3.2 | 6.4 | 0.00 | 0.00 | 0.00 | 92 | 848.3 |
| 20260506202047 | 1 | 337 | 6.4 | 12.9 | 0.00 | 0.00 | 0.00 | 92 | 848.4 |
| 20260506201548 | 1 | 315 | 12.9 | 12.9 | 0.00 | 0.00 | 0.00 | 92 | 848.4 |
| 20260506201047 | 1 | 315 | 9.7 | 9.7 | 0.00 | 0.00 | 0.00 | 92 | 848.3 |
| 20260506200548 | 1 | 337 | 14.5 | 29.0 | 0.00 | 0.00 | 0.00 | 92 | 848.4 |
| 20260506200047 | 1 | 315 | 3.2 | 14.5 | 0.00 | 0.00 | 0.00 | 92 | 848.3 |
| 20260506195548 | 1 | 315 | 20.9 | 20.9 | 0.00 | 0.00 | 0.00 | 92 | 848.2 |
| 20260506195047 | 1 | 315 | 8.0 | 19.3 | 0.00 | 0.00 | 0.00 | 92 | 848.3 |
| 20260506194547 | 1 | 315 | 11.3 | 19.3 | 0.00 | 0.00 | 0.00 | 92 | 848.3 |
| 20260506194047 | 1 | 315 | 8.0 | 19.3 | 0.00 | 0.00 | 0.00 | 92 | 848.4 |
| 20260506193549 | 2 | 315 | 6.4 | 24.1 | 0.00 | 0.00 | 0.00 | 92 | 848.6 |
| 20260506193047 | 2 | 315 | 6.4 | 11.3 | 0.00 | 0.00 | 0.00 | 92 | 848.8 |
| 20260506192548 | 2 | 315 | 9.7 | 12.9 | 0.00 | 0.00 | 0.00 | 92 | 849.0 |
| 20260506192048 | 2 | 292 | 12.9 | 12.9 | 0.00 | 0.00 | 0.00 | 93 | 848.8 |
| 20260506191547 | 2 | 292 | 9.7 | 11.3 | 0.00 | 0.00 | 0.00 | 92 | 848.8 |
| 20260506191047 | 2 | 292 | 9.7 | 16.1 | 0.00 | 0.00 | 0.00 | 92 | 848.9 |
| 20260506190549 | 2 | 315 | 12.9 | 16.1 | 0.00 | 0.00 | 0.00 | 92 | 848.8 |
| 20260506190047 | 1 | 0 | 0.0 | 0.0 | 0.00 | 0.00 | 0.00 | 92 | 851.6 |
| 20260506185627 | 1 | 0 | 0.0 | 0.0 | 0.00 | 0.00 | 0.00 | 91 | 853.0 |
| 20260506185547 | 1 | 0 | 0.0 | 0.0 | 0.00 | 0.00 | 0.00 | 91 | 853.0 |
| 20260506185048 | 2 | 0 | 0.0 | 0.0 | 0.00 | 0.00 | 0.00 | 91 | 851.9 |
| 20260506184547 | 2 | 315 | 0.0 | 0.0 | 0.00 | 0.00 | 0.00 | 91 | 853.3 |
| 20260506184047 | 2 | 315 | 0.0 | 0.0 | 0.00 | 0.00 | 0.00 | 91 | 851.6 |
| 20260506183548 | 2 | 315 | 0.0 | 0.0 | 0.00 | 0.00 | 0.00 | 91 | 853.6 |
| 20260506183230 | 2 | 315 | 0.0 | 0.0 | 0.00 | 0.00 | 0.00 | 91 | 853.6 |
| 20260506183047 | 2 | 315 | 0.0 | 0.0 | 0.00 | 0.00 | 0.00 | 91 | 853.6 |
| 20260506182547 | 2 | 315 | 0.0 | 0.0 | 0.00 | 0.00 | 0.00 | 89 | 854.4 |
| 20260506182047 | 2 | 315 | 0.0 | 0.0 | 0.00 | 0.00 | 0.00 | 89 | 854.2 |
| 20260506181548 | 2 | 315 | 0.0 | 0.0 | 0.00 | 0.00 | 0.00 | 89 | 854.6 |
| 20260506181047 | 2 | 315 | 0.0 | 0.0 | 0.00 | 0.00 | 0.00 | 89 | 852.3 |
| 20260506180704 | 2 | 315 | 0.0 | 0.0 | 0.00 | 0.00 | 0.00 | 88 | 854.6 |
| 20260506180547 | 2 | 315 | 0.0 | 0.0 | 0.00 | 0.00 | 0.00 | 88 | 854.6 |
| 20260506180047 | 3 | 315 | 0.0 | 0.0 | 0.00 | 0.00 | 0.00 | 88 | 856.1 |
| 20260506175547 | 3 | 315 | 0.0 | 0.0 | 0.00 | 0.00 | 0.00 | 88 | 854.1 |
| 20260506175048 | 3 | 315 | 0.0 | 0.0 | 0.00 | 0.00 | 0.00 | 88 | 853.9 |
| 20260506174548 | 4 | 315 | 0.0 | 0.0 | 0.00 | 0.00 | 0.00 | 89 | 854.3 |
| 20260506174048 | 3 | 315 | 0.0 | 0.0 | 0.00 | 0.00 | 0.00 | 89 | 852.8 |
| 20260506173547 | 3 | 315 | 0.0 | 0.0 | 0.00 | 0.00 | 0.00 | 88 | 855.1 |
| 20260506173047 | 3 | 315 | 0.0 | 0.0 | 0.00 | 0.00 | 0.00 | 88 | 852.4 |
| 20260506172547 | 4 | 315 | 0.0 | 0.0 | 0.00 | 0.00 | 0.00 | 87 | 853.2 |